SCP
0 0 0 0 0 0 0 0 0 0 0 0 0 0 0 0 0 0 0 0 0 0 0 0 0 0 0 0 0 0 0 0 0 0 0 0 0 0 0 0 0 0 0 0
0 0 0 0 0 0 0 0 0 0 0 0 0 0 0 0 0 0 0 0 0 0 0 0 0 0 0 0 0 0 0 0 0 0 0 0 0 0 0 0 0 0 0 0
0 0 0 0 0 0 0 0 0 0 0 0 0 0 0 0 0 0 0 0 0 0 0 0 0 0 0 0 0 0 0 0 0 0 0 0 0 0 0 0 0 0 0 0
0 0 0 0 0 0 0 0 0 0 0 0 0 0 0 0 0 0 0 0 0 0 0 0 0 0 0 0 0 0 0 0 0 0 0 0 0 0 0 0 0 0 0 0
0 0 0 0 0 0 0 0 0 0 0 0 0 0 0 0 0 0 0 0 0 0 0 0 0 0 0 0 0 0 0 0 0 0 0 0 0 0 0 0 0 0 0 0
0 0 0 0 0 0 0 0 0 0 0 0 0 0 0 0 0 0 0 0 0 0 0 0 0 0 0 0 0 0 0 0 0 0 0 0 0 0 0 0 0 0 0 0
0 0 0 0 0 0 0 0 0 0 0 0 0 0 0 0 0 0 0 0 0 0 0 0 0 0 0 0 0 0 0 0 0 0 0 0 0 0 0 0 0 0 0 0
0 0 0 0 0 0 0 0 0 0 0 0 0 0 0 0 0 0 0 0 0 0 0 0 0 0 0 0 0 0 0 0 0 0 0 0 0 0 0 0 0 0 0 0
0 0 0 0 0 0 0 0 0 0 0 0 0 0 0 0 0 0 0 0 0 0 0 0 0 0 0 0 0 0 0 0 0 0 0 0 0 0 0 0 0 0 0 0
0 0 0 0 0 0 0 0 0 0 0 0 0 0 0 0 0 0 0 0 0 0 0 0 0 0 0 0 0 0 0 0 0 0 0 0 0 0 0 0 0 0 0 0
0 0 0 0 0 0 0 0 0 0 0 0 0 0 0 0 0 0 0 0 0 0 0 0 0 0 0 0 0 0 0 0 0 0 0 0 0 0 0 0 0 0 0 0
0 0 0 0 0 0 0 0 0 0 0 0 0 0 0 0 0 0 0 0 0 0 0 0 0 0 0 0 0 0 0 0 0 0 0 0 0 0 0 0 0 0 0 0
0 0 0 0 0 0 0 0 0 0 0 0 0 0 0 0 0 0 0 0 0 0 0 0 0 0 0 0 0 0 0 0 0 0 0 0 0 0 0 0 0 0 0 0
0 0 0 0 0 0 0 0 0 0 0 0 0 0 0 0 0 0 0 0 0 0 0 0 0 0 0 0 0 0 0 0 0 0 0 0 0 0 0 0 0 0 0 0
0 0 0 0 0 0 0 0 0 0 0 0 0 0 0 0 0 0 0 0 0 0 0 0 0 0 0 0 0 0 0 0 0 0 0 0 0 0 0 0 0 0 0 0
0 0 0 0 0 0 0 0 0 0 0 0 0 0 0 0 0 0 0 0 0 0 0 0 0 0 0 0 0 0 0 0 0 0 0 0 0 0 0 0 0 0 0 0
0 0 0 0 0 0 0 0 0 0 0 0 0 0 0 0 0 0 0 0 0 0 0 0 0 0 0 0 0 0 0 0 0 0 0 0 0 0 0 0 0 0 0 0
0 0 0 0 0 0 0 0 0 0 0 0 0 0 0 0 0 0 0 0 0 0 0 0 0 0 0 0 0 0 0 0 0 0 0 0 0 0 0 0 0 0 0 0
0 0 0 0 0 0 0 0 0 0 0 0 0 0 0 0 0 0 0 0 0 0 0 0 0 0 0 0 0 0 0 0 0 0 0 0 0 0 0 0 0 0 0 0
0 0 0 0 0 0 0 0 0 0 0 0 0 0 0 0 0 0 0 0 0 0 0 0 0 0 0 0 0 0 0 0 0 0 0 0 0 0 0 0 0 0 0 0
0 0 0 0 0 0 0 0 0 0 0 0 0 0 0 0 0 0 0 0 0 0 0 0 0 0 0 0 0 0 0 0 0 0 0 0 0 0 0 0 0 0 0 0
0 0 0 0 0 0 0 0 0 0 0 0 0 0 0 0 0 0 0 0 0 0 0 0 0 0 0 0 0 0 0 0 0 0 0 0 0 0 0 0 0 0 0 0
0 0 0 0 0 0 0 0 0 0 0 0 0 0 0 0 0 0 0 0 0 0 0 0 0 0 0 0 0 0 0 0 0 0 0 0 0 0 0 0 0 0 0 0
0 0 0 0 0 0 0 0 0 0 0 0 0 0 0 0 0 0 0 0 0 0 0 0 0 0 0 0 0 0 0 0 0 0 0 0 0 0 0 0 0 0 0 0
0 0 0 0 0 0 0 0 0 0 0 0 0 0 0 0 0 0 0 0 0 0 0 0 0 0 0 0 0 0 0 0 0 0 0 0 0 0 0 0 0 0 0 0
0 0 0 0 0 0 0 0 0 0 0 0 0 0 0 0 0 0 0 0 0 0 0 0 0 0 0 0 0 0 0 0 0 0 0 0 0 0 0 0 0 0 0 0
Wind_Speed_500mb
7 7 17 25 20 5 8 8 10 6 6 1 13 13 7 16 24 21 22 25 30 34 34 35 35 33 30 26 24 26 25 30 22 17 16 13 5 3 6 9 9 10 11 13
6 14 19 8 9 9 5 5 10 10 4 11 9 12 5 12 9 14 23 26 32 35 38 44 50 53 57 57 56 50 45 37 31 24 24 19 16 11 8 8 13 17 18 20
15 10 13 14 9 11 9 12 9 13 6 3 7 12 8 7 19 21 21 26 29 32 36 41 48 52 55 58 59 56 56 55 52 43 32 25 20 18 12 8 5 8 9 13
12 9 11 9 11 15 10 15 10 8 7 8 2 9 6 9 9 10 20 27 29 29 33 38 44 48 51 53 49 48 48 49 48 42 37 32 32 28 30 25 23 20 18 18
13 13 11 11 11 15 12 9 11 5 6 3 4 1 11 11 9 11 21 26 30 32 34 38 39 40 42 39 37 33 34 32 32 29 28 28 29 31 28 25 21 20 20 18
9 3 11 12 5 9 14 12 12 9 6 2 12 12 8 11 9 12 28 32 31 32 33 34 33 31 30 29 27 23 23 25 23 23 24 24 24 24 20 21 19 21 22 23
2 8 5 8 12 5 7 11 2 5 1 11 4 3 14 5 4 18 37 50 40 34 33 29 24 22 22 19 18 16 17 18 17 16 17 18 18 17 17 18 20 20 22 25
14 7 18 11 9 14 13 12 10 13 7 7 3 11 11 5 9 17 49 53 43 40 35 26 19 15 13 12 11 9 10 12 13 13 15 15 15 16 17 20 21 23 25 26
11 6 4 6 6 5 9 8 7 13 5 4 8 10 3 1 4 20 44 51 48 44 40 30 21 13 8 5 3 2 3 4 6 7 9 11 13 14 17 19 21 24 26 28
13 6 1 5 9 9 8 13 7 4 4 8 9 9 10 12 16 13 25 51 52 47 43 35 24 15 12 9 7 6 7 6 5 3 4 7 10 14 18 22 25 27 30 32
12 6 4 9 11 17 6 6 7 8 8 10 4 10 11 15 20 28 39 58 57 55 50 39 28 24 20 16 13 14 13 10 7 4 4 8 13 17 20 24 28 31 33 35
15 10 8 12 5 5 1 12 13 9 11 5 3 15 9 8 30 47 50 60 55 52 47 38 33 29 26 22 20 21 20 17 11 8 9 12 17 21 25 29 32 35 37 39
18 4 4 11 3 5 9 10 7 9 7 15 9 13 6 7 18 39 41 51 53 47 43 41 42 42 38 31 28 28 26 20 16 14 16 18 22 26 33 37 40 43 45 46
18 9 14 19 11 11 11 12 11 12 10 10 30 24 5 7 12 21 39 48 46 37 36 41 48 49 43 37 32 33 29 24 22 23 25 27 30 36 42 46 49 52 52 53
10 15 9 5 6 5 7 13 27 25 33 22 25 24 14 19 18 32 41 47 48 35 33 37 41 44 48 43 38 37 35 31 29 31 35 36 40 43 46 50 54 56 55 58
3 3 7 5 3 7 6 16 12 27 5 6 3 25 14 26 29 21 33 51 59 40 26 26 34 45 49 45 39 40 38 34 35 39 43 47 46 44 47 56 59 61 59 65
11 13 7 10 6 9 15 24 25 12 13 17 23 25 9 11 23 38 40 40 43 31 30 32 40 46 47 42 36 39 37 41 46 48 50 50 48 49 52 58 64 63 65 71
13 13 5 7 5 15 4 8 2 22 11 16 2 8 13 14 22 21 24 27 26 28 33 35 38 41 40 37 38 38 43 51 56 57 52 48 49 54 58 63 66 63 67 70
2 10 7 9 9 14 3 10 14 16 19 19 18 12 20 17 10 14 19 17 20 22 27 28 26 30 30 29 32 40 48 57 61 57 51 50 52 58 61 67 64 63 66 70
6 7 13 8 9 16 5 4 15 10 14 19 31 15 22 24 4 9 7 13 20 24 27 32 34 33 32 34 37 41 47 56 60 61 58 57 59 61 63 63 61 63 67 72
6 1 22 12 16 12 10 14 23 11 12 17 31 29 38 10 18 11 17 21 24 29 32 35 38 41 43 37 38 41 44 54 63 65 63 61 59 60 59 62 61 63 66 70
14 18 9 4 6 19 26 10 17 11 9 28 34 40 36 24 18 24 30 30 24 23 31 41 49 52 46 43 48 51 53 57 64 65 62 58 56 58 62 63 62 60 64 68
6 11 11 17 10 1 56 12 33 20 23 35 42 44 37 30 27 25 32 36 29 32 36 42 53 60 57 55 57 58 60 63 65 63 60 58 57 60 59 60 59 60 60 64
8 8 3 6 9 13 49 34 18 30 30 32 38 43 38 30 28 32 34 41 41 37 40 44 49 55 60 62 60 60 66 66 64 61 59 59 61 62 55 57 56 57 57 61
7 18 12 5 3 6 23 38 36 36 35 36 38 41 43 41 44 42 42 44 45 44 41 45 50 53 56 54 57 64 66 62 61 61 60 60 62 56 54 54 53 52 53 56
17 12 9 9 25 21 21 32 32 37 33 27 34 42 45 45 44 42 45 40 42 44 48 46 46 46 50 56 60 62 60 60 62 64 62 62 59 53 54 54 54 44 47 49
Wind_Direction_500mb
157 128 206 199 200 159 145 180 214 247 224 193 243 249 339 63 83 89 93 92 84 78 75 75 74 75 75 73 70 72 80 79 82 93 108 115 96 63 333 313 315 298 290 275
71 223 228 148 160 175 156 168 250 284 284 184 313 281 76 48 64 108 114 102 99 98 93 89 85 82 77 74 71 70 72 76 76 78 73 71 70 82 58 358 323 333 331 312
180 208 146 171 164 166 206 196 200 221 346 345 341 286 182 58 103 113 118 120 117 109 100 93 88 83 80 76 72 71 70 68 64 61 67 72 72 82 83 64 32 355 340 318
233 251 184 168 196 153 218 204 173 177 122 225 59 279 243 172 149 140 148 145 134 121 106 100 95 88 80 76 73 70 67 65 66 68 65 67 69 70 67 60 50 39 28 21
232 179 186 190 191 165 216 118 150 130 127 56 251 293 256 140 201 197 187 167 150 138 127 116 103 94 87 82 72 67 61 63 68 66 67 67 70 73 76 74 72 70 65 59
228 211 173 204 104 153 139 79 52 55 92 282 229 184 254 196 195 164 181 182 168 151 140 128 116 105 93 82 72 67 62 65 71 72 76 75 83 87 86 76 59 48 41 38
169 212 189 164 88 61 104 111 299 341 24 230 5 188 250 176 149 180 180 184 176 164 154 141 127 114 99 86 70 62 62 67 67 64 69 67 62 56 45 42 34 26 20 18
167 201 167 191 192 170 177 163 156 223 210 261 343 233 260 261 296 236 193 178 174 173 166 160 146 131 113 90 74 60 60 65 67 57 51 48 45 38 31 25 16 9 6 4
154 259 98 90 126 135 182 179 157 103 39 21 234 282 275 44 46 139 162 174 182 181 179 179 175 164 146 122 106 116 87 88 92 75 63 44 33 25 16 12 5 360 356 352
203 117 63 144 109 47 151 158 85 10 178 257 279 273 238 222 202 169 168 187 189 189 193 195 196 201 201 199 207 206 195 181 154 105 42 15 7 4 359 353 345 343 341 339
151 125 219 136 207 170 135 174 68 123 149 175 258 253 210 219 177 182 198 196 194 196 201 205 212 217 211 217 217 216 212 209 208 222 294 331 336 334 335 331 330 328 328 326
193 140 167 195 139 91 164 194 161 164 216 253 146 257 3 252 179 185 198 200 202 206 210 217 229 227 228 230 230 225 220 218 226 254 286 300 311 318 320 323 325 324 325 324
175 198 83 354 32 39 192 205 161 92 79 194 170 259 34 70 164 201 203 206 207 210 215 228 235 235 233 231 231 228 222 223 238 256 274 292 302 312 318 320 321 321 320 320
140 144 171 211 187 137 178 195 189 163 190 179 229 253 171 210 211 204 212 215 209 210 229 240 238 238 237 233 235 228 222 229 244 261 274 286 297 306 311 314 316 316 316 316
169 192 153 86 101 119 194 188 193 199 222 210 246 228 183 207 207 214 218 211 205 229 250 247 241 242 236 231 232 223 223 236 253 265 274 280 286 293 301 307 310 310 310 312
343 109 80 334 89 79 276 235 172 219 187 252 253 257 181 209 218 223 227 221 220 251 255 256 252 245 233 232 232 227 232 244 260 268 269 271 275 284 294 303 307 308 308 312
147 129 114 231 112 101 273 222 195 175 188 171 213 238 181 201 211 225 234 233 242 251 256 250 246 242 229 229 233 235 245 254 262 266 267 269 275 285 291 299 304 304 308 312
148 137 155 134 68 221 249 30 90 204 219 210 334 214 181 202 219 230 218 228 239 246 247 244 237 229 226 232 242 248 254 263 267 266 265 269 278 283 287 295 298 300 306 310
349 130 141 160 202 316 225 186 155 163 246 188 207 216 187 186 187 234 212 236 259 253 246 240 224 217 217 231 248 260 265 266 267 261 261 268 275 277 283 289 292 298 305 311
24 5 195 144 193 222 258 224 146 117 267 205 198 195 160 150 128 242 300 269 259 250 234 234 219 221 238 255 269 269 269 268 265 260 257 261 266 273 283 289 291 300 307 312
116 68 211 194 230 280 197 179 148 121 246 178 195 192 166 176 204 284 283 268 261 251 250 231 234 245 259 267 266 271 276 273 261 254 255 260 268 279 286 289 292 300 308 313
161 172 199 124 190 257 165 106 167 191 140 165 171 177 186 222 249 262 255 246 233 250 248 249 254 258 266 267 267 270 275 270 261 257 259 266 275 282 288 288 294 302 309 313
231 188 180 189 204 258 176 185 188 164 170 183 197 203 217 221 241 262 257 245 253 262 258 261 264 267 265 267 266 266 270 264 260 260 265 271 278 284 286 285 293 303 310 313
241 146 183 106 195 211 197 206 188 212 225 232 236 233 229 234 270 277 266 248 261 267 267 275 270 269 268 269 266 267 264 261 261 265 270 275 281 285 282 285 295 304 311 312
199 133 158 262 235 195 232 218 222 235 247 260 264 256 255 259 280 276 268 260 266 270 273 276 275 277 275 266 264 263 261 263 267 271 275 280 283 283 281 287 296 305 310 311
182 158 174 211 199 189 214 230 246 242 248 262 270 263 265 273 272 276 269 269 277 271 276 276 277 274 266 263 262 261 263 267 269 273 278 281 281 279 282 289 296 303 308 311
Wind_Speed_850mb
7 7 17 25 20 5 8 8 10 6 6 1 13 13 7 16 24 21 22 25 30 34 34 35 35 33 30 26 24 26 25 30 22 17 16 13 5 3 6 9 9 10 11 13
6 14 19 8 9 9 5 5 10 10 4 11 9 12 5 12 9 14 23 26 32 35 38 44 50 53 57 57 56 50 45 37 31 24 24 19 16 11 8 8 13 17 18 20
15 10 13 14 9 11 9 12 9 13 6 3 7 12 8 7 19 21 21 26 29 32 36 41 48 52 55 58 59 56 56 55 52 43 32 25 20 18 12 8 5 8 9 13
12 9 11 9 11 15 10 15 10 8 7 8 2 9 6 9 9 10 20 27 29 29 33 38 44 48 51 53 49 48 48 49 48 42 37 32 32 28 30 25 23 20 18 18
13 13 11 11 11 15 12 9 11 5 6 3 4 1 11 11 9 11 21 26 30 32 34 38 39 40 42 39 37 33 34 32 32 29 28 28 29 31 28 25 21 20 20 18
9 3 11 12 5 9 14 12 12 9 6 2 12 12 8 11 9 12 28 32 31 32 33 34 33 31 30 29 27 23 23 25 23 23 24 24 24 24 20 21 19 21 22 23
2 8 5 8 12 5 7 11 2 5 1 11 4 3 14 5 4 18 37 50 40 34 33 29 24 22 22 19 18 16 17 18 17 16 17 18 18 17 17 18 20 20 22 25
14 7 18 11 9 14 13 12 10 13 7 7 3 11 11 5 9 17 49 53 43 40 35 26 19 15 13 12 11 9 10 12 13 13 15 15 15 16 17 20 21 23 25 26
11 6 4 6 6 5 9 8 7 13 5 4 8 10 3 1 4 20 44 51 48 44 40 30 21 13 8 5 3 2 3 4 6 7 9 11 13 14 17 19 21 24 26 28
13 6 1 5 9 9 8 13 7 4 4 8 9 9 10 12 16 13 25 51 52 47 43 35 24 15 12 9 7 6 7 6 5 3 4 7 10 14 18 22 25 27 30 32
12 6 4 9 11 17 6 6 7 8 8 10 4 10 11 15 20 28 39 58 57 55 50 39 28 24 20 16 13 14 13 10 7 4 4 8 13 17 20 24 28 31 33 35
15 10 8 12 5 5 1 12 13 9 11 5 3 15 9 8 30 47 50 60 55 52 47 38 33 29 26 22 20 21 20 17 11 8 9 12 17 21 25 29 32 35 37 39
18 4 4 11 3 5 9 10 7 9 7 15 9 13 6 7 18 39 41 51 53 47 43 41 42 42 38 31 28 28 26 20 16 14 16 18 22 26 33 37 40 43 45 46
18 9 14 19 11 11 11 12 11 12 10 10 30 24 5 7 12 21 39 48 46 37 36 41 48 49 43 37 32 33 29 24 22 23 25 27 30 36 42 46 49 52 52 53
10 15 9 5 6 5 7 13 27 25 33 22 25 24 14 19 18 32 41 47 48 35 33 37 41 44 48 43 38 37 35 31 29 31 35 36 40 43 46 50 54 56 55 58
3 3 7 5 3 7 6 16 12 27 5 6 3 25 14 26 29 21 33 51 59 40 26 26 34 45 49 45 39 40 38 34 35 39 43 47 46 44 47 56 59 61 59 65
11 13 7 10 6 9 15 24 25 12 13 17 23 25 9 11 23 38 40 40 43 31 30 32 40 46 47 42 36 39 37 41 46 48 50 50 48 49 52 58 64 63 65 71
13 13 5 7 5 15 4 8 2 22 11 16 2 8 13 14 22 21 24 27 26 28 33 35 38 41 40 37 38 38 43 51 56 57 52 48 49 54 58 63 66 63 67 70
2 10 7 9 9 14 3 10 14 16 19 19 18 12 20 17 10 14 19 17 20 22 27 28 26 30 30 29 32 40 48 57 61 57 51 50 52 58 61 67 64 63 66 70
6 7 13 8 9 16 5 4 15 10 14 19 31 15 22 24 4 9 7 13 20 24 27 32 34 33 32 34 37 41 47 56 60 61 58 57 59 61 63 63 61 63 67 72
6 1 22 12 16 12 10 14 23 11 12 17 31 29 38 10 18 11 17 21 24 29 32 35 38 41 43 37 38 41 44 54 63 65 63 61 59 60 59 62 61 63 66 70
14 18 9 4 6 19 26 10 17 11 9 28 34 40 36 24 18 24 30 30 24 23 31 41 49 52 46 43 48 51 53 57 64 65 62 58 56 58 62 63 62 60 64 68
6 11 11 17 10 1 56 12 33 20 23 35 42 44 37 30 27 25 32 36 29 32 36 42 53 60 57 55 57 58 60 63 65 63 60 58 57 60 59 60 59 60 60 64
8 8 3 6 9 13 49 34 18 30 30 32 38 43 38 30 28 32 34 41 41 37 40 44 49 55 60 62 60 60 66 66 64 61 59 59 61 62 55 57 56 57 57 61
7 18 12 5 3 6 23 38 36 36 35 36 38 41 43 41 44 42 42 44 45 44 41 45 50 53 56 54 57 64 66 62 61 61 60 60 62 56 54 54 53 52 53 56
17 12 9 9 25 21 21 32 32 37 33 27 34 42 45 45 44 42 45 40 42 44 48 46 46 46 50 56 60 62 60 60 62 64 62 62 59 53 54 54 54 44 47 49
Wind_Direction_850mb
157 128 206 199 200 159 145 180 214 247 224 193 243 249 339 63 83 89 93 92 84 78 75 75 74 75 75 73 70 72 80 79 82 93 108 115 96 63 333 313 315 298 290 275
71 223 228 148 160 175 156 168 250 284 284 184 313 281 76 48 64 108 114 102 99 98 93 89 85 82 77 74 71 70 72 76 76 78 73 71 70 82 58 358 323 333 331 312
180 208 146 171 164 166 206 196 200 221 346 345 341 286 182 58 103 113 118 120 117 109 100 93 88 83 80 76 72 71 70 68 64 61 67 72 72 82 83 64 32 355 340 318
233 251 184 168 196 153 218 204 173 177 122 225 59 279 243 172 149 140 148 145 134 121 106 100 95 88 80 76 73 70 67 65 66 68 65 67 69 70 67 60 50 39 28 21
232 179 186 190 191 165 216 118 150 130 127 56 251 293 256 140 201 197 187 167 150 138 127 116 103 94 87 82 72 67 61 63 68 66 67 67 70 73 76 74 72 70 65 59
228 211 173 204 104 153 139 79 52 55 92 282 229 184 254 196 195 164 181 182 168 151 140 128 116 105 93 82 72 67 62 65 71 72 76 75 83 87 86 76 59 48 41 38
169 212 189 164 88 61 104 111 299 341 24 230 5 188 250 176 149 180 180 184 176 164 154 141 127 114 99 86 70 62 62 67 67 64 69 67 62 56 45 42 34 26 20 18
167 201 167 191 192 170 177 163 156 223 210 261 343 233 260 261 296 236 193 178 174 173 166 160 146 131 113 90 74 60 60 65 67 57 51 48 45 38 31 25 16 9 6 4
154 259 98 90 126 135 182 179 157 103 39 21 234 282 275 44 46 139 162 174 182 181 179 179 175 164 146 122 106 116 87 88 92 75 63 44 33 25 16 12 5 360 356 352
203 117 63 144 109 47 151 158 85 10 178 257 279 273 238 222 202 169 168 187 189 189 193 195 196 201 201 199 207 206 195 181 154 105 42 15 7 4 359 353 345 343 341 339
151 125 219 136 207 170 135 174 68 123 149 175 258 253 210 219 177 182 198 196 194 196 201 205 212 217 211 217 217 216 212 209 208 222 294 331 336 334 335 331 330 328 328 326
193 140 167 195 139 91 164 194 161 164 216 253 146 257 3 252 179 185 198 200 202 206 210 217 229 227 228 230 230 225 220 218 226 254 286 300 311 318 320 323 325 324 325 324
175 198 83 354 32 39 192 205 161 92 79 194 170 259 34 70 164 201 203 206 207 210 215 228 235 235 233 231 231 228 222 223 238 256 274 292 302 312 318 320 321 321 320 320
140 144 171 211 187 137 178 195 189 163 190 179 229 253 171 210 211 204 212 215 209 210 229 240 238 238 237 233 235 228 222 229 244 261 274 286 297 306 311 314 316 316 316 316
169 192 153 86 101 119 194 188 193 199 222 210 246 228 183 207 207 214 218 211 205 229 250 247 241 242 236 231 232 223 223 236 253 265 274 280 286 293 301 307 310 310 310 312
343 109 80 334 89 79 276 235 172 219 187 252 253 257 181 209 218 223 227 221 220 251 255 256 252 245 233 232 232 227 232 244 260 268 269 271 275 284 294 303 307 308 308 312
147 129 114 231 112 101 273 222 195 175 188 171 213 238 181 201 211 225 234 233 242 251 256 250 246 242 229 229 233 235 245 254 262 266 267 269 275 285 291 299 304 304 308 312
148 137 155 134 68 221 249 30 90 204 219 210 334 214 181 202 219 230 218 228 239 246 247 244 237 229 226 232 242 248 254 263 267 266 265 269 278 283 287 295 298 300 306 310
349 130 141 160 202 316 225 186 155 163 246 188 207 216 187 186 187 234 212 236 259 253 246 240 224 217 217 231 248 260 265 266 267 261 261 268 275 277 283 289 292 298 305 311
24 5 195 144 193 222 258 224 146 117 267 205 198 195 160 150 128 242 300 269 259 250 234 234 219 221 238 255 269 269 269 268 265 260 257 261 266 273 283 289 291 300 307 312
116 68 211 194 230 280 197 179 148 121 246 178 195 192 166 176 204 284 283 268 261 251 250 231 234 245 259 267 266 271 276 273 261 254 255 260 268 279 286 289 292 300 308 313
161 172 199 124 190 257 165 106 167 191 140 165 171 177 186 222 249 262 255 246 233 250 248 249 254 258 266 267 267 270 275 270 261 257 259 266 275 282 288 288 294 302 309 313
231 188 180 189 204 258 176 185 188 164 170 183 197 203 217 221 241 262 257 245 253 262 258 261 264 267 265 267 266 266 270 264 260 260 265 271 278 284 286 285 293 303 310 313
241 146 183 106 195 211 197 206 188 212 225 232 236 233 229 234 270 277 266 248 261 267 267 275 270 269 268 269 266 267 264 261 261 265 270 275 281 285 282 285 295 304 311 312
199 133 158 262 235 195 232 218 222 235 247 260 264 256 255 259 280 276 268 260 266 270 273 276 275 277 275 266 264 263 261 263 267 271 275 280 283 283 281 287 296 305 310 311
182 158 174 211 199 189 214 230 246 242 248 262 270 263 265 273 272 276 269 269 277 271 276 276 277 274 266 263 262 261 263 267 269 273 278 281 281 279 282 289 296 303 308 311